Location: Madrid
(40.4000°N, 3.6830°W)
Time: 12:34:13
(UTC+02:00)

ISS - Pass Details

Date: 30 May 2020
Orbit: 417 x 419 km, 51.6° (Epoch: 31 May)

Event Time Altitude Azimuth Distance (km) Brightness Sun altitude
Rises 23:09:16 0° 310° (NW) 2,366 1.9 -14.5°
Reaches altitude 10° 23:11:26 10° 317° (NW) 1,500 0.5 -14.8°
Maximum altitude 23:14:41 45° 31° (NNE) 577 -3.0 -15.2°
Enters shadow 23:16:15 25° 91° (E) 880 -2.5 -15.4°
